TimeEST,TemperatureF,Dew PointF,Humidity,Sea Level PressureIn,VisibilityMPH,Wind Direction,Wind SpeedMPH,Gust SpeedMPH,PrecipitationIn,Events,Conditions,WindDirDegrees,DateUTC
12:15 AM,39.2,39.2,100,29.70,10.0,Calm,Calm,-,N/A,,Clear,0,2013-02-28 05:15:00
12:35 AM,39.2,37.4,93,29.69,10.0,Calm,Calm,-,N/A,,Scattered Clouds,0,2013-02-28 05:35:00
12:55 AM,39.2,39.2,100,29.69,10.0,Calm,Calm,-,N/A,,Mostly Cloudy,0,2013-02-28 05:55:00
1:15 AM,37.4,37.4,100,29.68,10.0,Calm,Calm,-,N/A,,Scattered Clouds,0,2013-02-28 06:15:00
2:15 AM,39.2,39.2,100,29.67,10.0,SW,3.5,-,N/A,,Clear,230,2013-02-28 07:15:00
2:35 AM,41.0,39.2,93,29.67,10.0,WSW,3.5,-,N/A,,Clear,250,2013-02-28 07:35:00
2:55 AM,39.2,39.2,100,29.67,10.0,Calm,Calm,-,N/A,,Clear,0,2013-02-28 07:55:00
3:15 AM,39.2,39.2,100,29.67,10.0,Calm,Calm,-,N/A,,Mostly Cloudy,0,2013-02-28 08:15:00
3:35 AM,42.8,41.0,93,29.66,10.0,Calm,Calm,-,N/A,,Overcast,0,2013-02-28 08:35:00
3:55 AM,42.8,41.0,93,29.66,10.0,Calm,Calm,-,N/A,,Overcast,0,2013-02-28 08:55:00
4:15 AM,42.8,41.0,93,29.67,10.0,Calm,Calm,-,N/A,,Overcast,0,2013-02-28 09:15:00
4:35 AM,42.8,41.0,93,29.68,10.0,Calm,Calm,-,N/A,,Overcast,0,2013-02-28 09:35:00
4:55 AM,42.8,39.2,87,29.69,10.0,SW,4.6,-,N/A,,Overcast,230,2013-02-28 09:55:00
5:15 AM,42.8,39.2,87,29.69,10.0,Calm,Calm,-,N/A,,Mostly Cloudy,0,2013-02-28 10:15:00
5:35 AM,42.8,39.2,87,29.69,10.0,SW,3.5,-,N/A,,Scattered Clouds,230,2013-02-28 10:35:00
5:55 AM,41.0,39.2,93,29.69,10.0,WSW,3.5,-,N/A,,Scattered Clouds,240,2013-02-28 10:55:00
6:15 AM,39.2,37.4,93,29.69,10.0,WSW,5.8,-,N/A,,Scattered Clouds,240,2013-02-28 11:15:00
6:35 AM,41.0,37.4,87,29.70,10.0,WSW,5.8,-,N/A,,Mostly Cloudy,240,2013-02-28 11:35:00
6:55 AM,42.8,39.2,87,29.70,10.0,WSW,6.9,-,N/A,,Overcast,250,2013-02-28 11:55:00
7:15 AM,42.8,39.2,87,29.70,10.0,WSW,8.1,-,N/A,,Overcast,250,2013-02-28 12:15:00
7:35 AM,42.8,39.2,87,29.71,10.0,WSW,6.9,-,N/A,,Overcast,250,2013-02-28 12:35:00
7:55 AM,42.8,39.2,87,29.71,10.0,WSW,6.9,-,N/A,,Scattered Clouds,250,2013-02-28 12:55:00
8:15 AM,44.6,39.2,81,29.72,10.0,WSW,10.4,-,N/A,,Clear,250,2013-02-28 13:15:00
8:35 AM,46.4,37.4,71,29.72,10.0,West,9.2,-,N/A,,Clear,260,2013-02-28 13:35:00
8:55 AM,46.4,37.4,71,29.72,10.0,West,10.4,-,N/A,,Clear,270,2013-02-28 13:55:00
9:15 AM,48.2,37.4,66,29.71,10.0,West,11.5,-,N/A,,Clear,280,2013-02-28 14:15:00
9:35 AM,48.2,35.6,62,29.71,10.0,NW,10.4,-,N/A,,Scattered Clouds,310,2013-02-28 14:35:00
9:55 AM,50.0,35.6,58,29.72,10.0,West,9.2,-,N/A,,Mostly Cloudy,280,2013-02-28 14:55:00
10:15 AM,48.2,35.6,62,29.71,10.0,West,10.4,-,N/A,,Overcast,270,2013-02-28 15:15:00
10:35 AM,48.2,33.8,58,29.72,10.0,West,9.2,-,N/A,,Overcast,270,2013-02-28 15:35:00
10:55 AM,48.2,33.8,58,29.71,10.0,West,8.1,-,N/A,,Overcast,270,2013-02-28 15:55:00
11:15 AM,48.2,30.2,50,29.71,10.0,West,11.5,-,N/A,,Overcast,260,2013-02-28 16:15:00
11:35 AM,50.0,32.0,50,29.71,10.0,WSW,12.7,-,N/A,,Overcast,250,2013-02-28 16:35:00
11:55 AM,50.0,30.2,47,29.70,10.0,West,12.7,18.4,N/A,,Overcast,280,2013-02-28 16:55:00
12:15 PM,50.0,28.4,43,29.69,10.0,West,12.7,21.9,N/A,,Overcast,280,2013-02-28 17:15:00
12:35 PM,51.8,30.2,44,29.69,10.0,West,13.8,-,N/A,,Overcast,260,2013-02-28 17:35:00
12:55 PM,50.0,28.4,43,29.68,10.0,West,12.7,-,N/A,,Overcast,270,2013-02-28 17:55:00
1:15 PM,50.0,28.4,43,29.68,10.0,West,15.0,20.7,N/A,,Overcast,270,2013-02-28 18:15:00
1:35 PM,51.8,28.4,41,29.67,10.0,West,12.7,19.6,N/A,,Mostly Cloudy,280,2013-02-28 18:35:00
1:55 PM,51.8,28.4,41,29.67,10.0,West,17.3,24.2,N/A,,Mostly Cloudy,280,2013-02-28 18:55:00
2:15 PM,51.8,28.4,41,29.67,10.0,WSW,20.7,27.6,N/A,,Mostly Cloudy,250,2013-02-28 19:15:00
2:35 PM,50.0,28.4,43,29.67,10.0,WNW,10.4,19.6,N/A,,Overcast,300,2013-02-28 19:35:00
2:55 PM,50.0,28.4,43,29.68,10.0,West,13.8,19.6,N/A,,Overcast,280,2013-02-28 19:55:00
3:15 PM,48.2,28.4,46,29.68,10.0,West,16.1,23.0,N/A,,Overcast,280,2013-02-28 20:15:00
3:35 PM,48.2,28.4,46,29.69,10.0,WNW,18.4,24.2,N/A,,Overcast,290,2013-02-28 20:35:00
4:15 PM,48.2,30.2,50,29.70,10.0,West,15.0,20.7,N/A,,Overcast,270,2013-02-28 21:15:00
4:35 PM,48.2,30.2,50,29.70,10.0,WNW,10.4,-,N/A,,Overcast,290,2013-02-28 21:35:00
4:55 PM,48.2,30.2,50,29.70,10.0,West,12.7,-,N/A,,Overcast,270,2013-02-28 21:55:00
5:15 PM,48.2,30.2,50,29.71,10.0,West,13.8,20.7,N/A,,Overcast,280,2013-02-28 22:15:00
5:35 PM,46.4,30.2,53,29.72,10.0,West,13.8,-,N/A,,Overcast,270,2013-02-28 22:35:00
5:55 PM,46.4,30.2,53,29.72,10.0,West,8.1,-,N/A,,Mostly Cloudy,280,2013-02-28 22:55:00
6:15 PM,46.4,30.2,53,29.73,10.0,West,5.8,-,N/A,,Scattered Clouds,280,2013-02-28 23:15:00
6:35 PM,44.6,30.2,57,29.74,10.0,West,5.8,-,N/A,,Clear,270,2013-02-28 23:35:00
6:55 PM,44.6,30.2,57,29.75,10.0,West,3.5,-,N/A,,Clear,280,2013-02-28 23:55:00
7:15 PM,42.8,30.2,61,29.76,10.0,West,3.5,-,N/A,,Clear,270,2013-03-01 00:15:00
7:35 PM,42.8,30.2,61,29.76,10.0,West,4.6,-,N/A,,Clear,280,2013-03-01 00:35:00
7:55 PM,42.8,30.2,61,29.76,10.0,West,5.8,-,N/A,,Clear,270,2013-03-01 00:55:00
8:15 PM,42.8,30.2,61,29.77,10.0,West,4.6,-,N/A,,Clear,270,2013-03-01 01:15:00
8:35 PM,41.0,30.2,65,29.77,10.0,West,4.6,-,N/A,,Clear,260,2013-03-01 01:35:00
8:55 PM,41.0,28.4,61,29.78,10.0,West,6.9,-,N/A,,Clear,260,2013-03-01 01:55:00
9:15 PM,42.8,28.4,57,29.78,10.0,West,6.9,-,N/A,,Clear,270,2013-03-01 02:15:00
9:35 PM,42.8,28.4,57,29.78,10.0,West,5.8,-,N/A,,Clear,270,2013-03-01 02:35:00
9:55 PM,41.0,28.4,61,29.78,10.0,West,6.9,-,N/A,,Clear,270,2013-03-01 02:55:00
10:15 PM,41.0,28.4,61,29.78,10.0,West,6.9,-,N/A,,Clear,270,2013-03-01 03:15:00
10:35 PM,41.0,28.4,61,29.79,10.0,West,5.8,-,N/A,,Clear,270,2013-03-01 03:35:00
10:55 PM,39.2,28.4,65,29.79,10.0,West,5.8,-,N/A,,Clear,260,2013-03-01 03:55:00
11:15 PM,39.2,28.4,65,29.79,10.0,West,8.1,-,N/A,,Clear,280,2013-03-01 04:15:00
11:35 PM,39.2,30.2,70,29.79,10.0,West,4.6,-,N/A,,Clear,260,2013-03-01 04:35:00
11:55 PM,37.4,30.2,75,29.79,10.0,West,5.8,-,N/A,,Clear,260,2013-03-01 04:55:00